| time (UTC) | temp F | wind direction | speed MPH | gust MPH | rain 1hr in | rain 24hr in | rain mn in | humidity % | barometer mb |
| 20260507210529 | 65 | 90 | 1.0 | 9.0 | 0.00 | 0.12 | 0.12 | 34 | 1007.3 |
| 20260507210112 | 64 | 86 | 2.0 | 9.0 | 0.00 | 0.12 | 0.12 | 32 | 1007.3 |
| 20260507205528 | 65 | 9 | 2.0 | 5.0 | 0.00 | 0.12 | 0.12 | 33 | 1007.2 |
| 20260507205028 | 64 | 298 | 1.0 | 7.0 | 0.00 | 0.12 | 0.12 | 34 | 1007.3 |
| 20260507204542 | 64 | 217 | 2.0 | 7.0 | 0.00 | 0.12 | 0.12 | 32 | 1007.2 |
| 20260507204028 | 65 | 16 | 2.0 | 8.0 | 0.00 | 0.12 | 0.12 | 33 | 1007.2 |
| 20260507203528 | 64 | 21 | 3.0 | 8.0 | 0.00 | 0.12 | 0.12 | 33 | 1007.1 |
| 20260507203044 | 64 | 13 | 3.0 | 8.0 | 0.00 | 0.12 | 0.12 | 32 | 1007.1 |
| 20260507202528 | 64 | 295 | 2.0 | 11.0 | 0.00 | 0.12 | 0.12 | 33 | 1007.1 |
| 20260507202028 | 64 | 272 | 1.0 | 11.0 | 0.00 | 0.12 | 0.12 | 34 | 1007.1 |
| 20260507201542 | 64 | 325 | 3.0 | 8.0 | 0.00 | 0.12 | 0.12 | 34 | 1007.2 |
| 20260507201030 | 64 | 346 | 2.0 | 9.0 | 0.00 | 0.12 | 0.12 | 33 | 1007.1 |
| 20260507200528 | 64 | 267 | 1.0 | 12.0 | 0.00 | 0.12 | 0.12 | 33 | 1007.2 |
| 20260507195528 | 64 | 292 | 2.0 | 12.0 | 0.00 | 0.12 | 0.12 | 34 | 1007.3 |
| 20260507195029 | 63 | 334 | 1.0 | 6.0 | 0.00 | 0.12 | 0.12 | 33 | 1007.3 |
| 20260507194544 | 64 | 284 | 2.0 | 6.0 | 0.00 | 0.12 | 0.12 | 32 | 1007.4 |
| 20260507194027 | 64 | 292 | 2.0 | 6.0 | 0.00 | 0.12 | 0.12 | 33 | 1007.5 |
| 20260507193530 | 63 | 317 | 3.0 | 8.0 | 0.00 | 0.12 | 0.12 | 34 | 1007.5 |
| 20260507193109 | 63 | 336 | 3.0 | 8.0 | 0.00 | 0.12 | 0.12 | 34 | 1007.5 |
| 20260507192527 | 63 | 323 | 3.0 | 12.0 | 0.00 | 0.12 | 0.12 | 34 | 1007.5 |
| 20260507192028 | 63 | 309 | 4.0 | 12.0 | 0.00 | 0.12 | 0.12 | 33 | 1007.5 |
| 20260507191553 | 64 | 13 | 2.0 | 9.0 | 0.00 | 0.12 | 0.12 | 32 | 1007.7 |
| 20260507191028 | 64 | 325 | 4.0 | 9.0 | 0.00 | 0.12 | 0.12 | 32 | 1007.8 |
| 20260507190528 | 64 | 344 | 5.0 | 9.0 | 0.00 | 0.12 | 0.12 | 33 | 1007.9 |
| 20260507190041 | 63 | 329 | 3.0 | 13.0 | 0.00 | 0.12 | 0.12 | 36 | 1008.1 |
| 20260507185528 | 63 | 14 | 5.0 | 13.0 | 0.00 | 0.12 | 0.12 | 34 | 1008.2 |
| 20260507185028 | 63 | 285 | 2.0 | 8.0 | 0.00 | 0.12 | 0.12 | 36 | 1008.1 |
| 20260507184546 | 63 | 298 | 2.0 | 9.0 | 0.00 | 0.12 | 0.12 | 34 | 1008.0 |
| 20260507184030 | 64 | 316 | 2.0 | 9.0 | 0.00 | 0.12 | 0.12 | 35 | 1008.2 |
| 20260507183528 | 64 | 74 | 4.0 | 11.0 | 0.00 | 0.12 | 0.12 | 33 | 1008.2 |
| 20260507183057 | 64 | 290 | 1.0 | 12.0 | 0.00 | 0.12 | 0.12 | 33 | 1008.1 |
| 20260507182525 | 64 | 274 | 6.0 | 12.0 | 0.00 | 0.12 | 0.12 | 34 | 1008.1 |
| 20260507182028 | 65 | 62 | 2.0 | 6.0 | 0.00 | 0.12 | 0.12 | 37 | 1008.1 |
| 20260507181545 | 64 | 246 | 1.0 | 6.0 | 0.00 | 0.12 | 0.12 | 37 | 1008.1 |
| 20260507181028 | 63 | 300 | 2.0 | 7.0 | 0.00 | 0.12 | 0.12 | 37 | 1008.1 |
| 20260507180529 | 63 | 290 | 2.0 | 7.0 | 0.00 | 0.12 | 0.12 | 38 | 1008.2 |
| 20260507180043 | 63 | 230 | 2.0 | 9.0 | 0.00 | 0.12 | 0.12 | 38 | 1008.2 |
| 20260507175559 | 63 | 297 | 3.0 | 9.0 | 0.00 | 0.12 | 0.12 | 36 | 1008.3 |
| 20260507175030 | 64 | 277 | 2.0 | 5.0 | 0.00 | 0.12 | 0.12 | 38 | 1008.5 |
| 20260507174546 | 63 | 308 | 1.0 | 10.0 | 0.00 | 0.12 | 0.12 | 38 | 1008.3 |
| 20260507174030 | 63 | 336 | 3.0 | 13.0 | 0.00 | 0.12 | 0.12 | 36 | 1008.6 |
| 20260507173528 | 63 | 37 | 2.0 | 13.0 | 0.00 | 0.12 | 0.12 | 38 | 1008.9 |
| 20260507173112 | 63 | 330 | 5.0 | 13.0 | 0.00 | 0.12 | 0.12 | 37 | 1008.9 |
| 20260507172525 | 63 | 305 | 2.0 | 8.0 | 0.00 | 0.12 | 0.12 | 37 | 1008.9 |
| 20260507172027 | 62 | 298 | 3.0 | 8.0 | 0.00 | 0.12 | 0.12 | 42 | 1009.0 |
| 20260507171547 | 62 | 333 | 1.0 | 6.0 | 0.00 | 0.12 | 0.12 | 43 | 1009.1 |
| 20260507171027 | 62 | 59 | 2.0 | 8.0 | 0.00 | 0.12 | 0.12 | 45 | 1009.3 |
| 20260507170530 | 61 | 291 | 2.0 | 9.0 | 0.00 | 0.12 | 0.12 | 44 | 1009.3 |
| 20260507170049 | 61 | 16 | 3.0 | 9.0 | 0.00 | 0.12 | 0.12 | 46 | 1009.6 |
| 20260507165528 | 61 | 260 | 1.0 | 4.0 | 0.00 | 0.12 | 0.12 | 45 | 1009.6 |
| 20260507165031 | 60 | 232 | 2.0 | 4.0 | 0.00 | 0.12 | 0.12 | 48 | 1009.6 |
| 20260507164553 | 59 | 170 | 1.0 | 3.0 | 0.00 | 0.12 | 0.12 | 48 | 1009.6 |
| 20260507164031 | 59 | 290 | 1.0 | 6.0 | 0.00 | 0.12 | 0.12 | 48 | 1009.9 |
| 20260507163528 | 58 | 278 | 1.0 | 6.0 | 0.00 | 0.12 | 0.12 | 52 | 1009.9 |
| 20260507163045 | 58 | 271 | 1.0 | 7.0 | 0.00 | 0.12 | 0.12 | 51 | 1010.1 |
| 20260507162528 | 58 | 286 | 3.0 | 7.0 | 0.00 | 0.12 | 0.12 | 51 | 1010.1 |
| 20260507162030 | 58 | 302 | 1.0 | 5.0 | 0.00 | 0.12 | 0.12 | 53 | 1010.2 |
| 20260507161549 | 58 | 187 | 1.0 | 6.0 | 0.00 | 0.12 | 0.12 | 53 | 1010.3 |
| 20260507161029 | 57 | 44 | 2.0 | 6.0 | 0.00 | 0.12 | 0.12 | 55 | 1010.2 |
| 20260507160529 | 57 | 333 | 3.0 | 6.0 | 0.00 | 0.12 | 0.12 | 53 | 1010.3 |
| 20260507160059 | 58 | 82 | 3.0 | 6.0 | 0.00 | 0.12 | 0.12 | 53 | 1010.3 |
| 20260507155531 | 58 | 55 | 2.0 | 6.0 | 0.00 | 0.12 | 0.12 | 53 | 1010.3 |
| 20260507155031 | 58 | 241 | 0.0 | 6.0 | 0.00 | 0.12 | 0.12 | 54 | 1010.4 |
| 20260507154545 | 58 | 344 | 2.0 | 6.0 | 0.00 | 0.12 | 0.12 | 52 | 1010.4 |
| 20260507154032 | 58 | 309 | 1.0 | 6.0 | 0.00 | 0.12 | 0.12 | 53 | 1010.4 |
| 20260507153528 | 58 | 53 | 2.0 | 8.0 | 0.00 | 0.12 | 0.12 | 54 | 1010.4 |
| 20260507153043 | 57 | 122 | 2.0 | 12.0 | 0.00 | 0.12 | 0.12 | 54 | 1010.4 |
| 20260507152528 | 58 | 325 | 3.0 | 12.0 | 0.00 | 0.12 | 0.12 | 54 | 1010.7 |
| 20260507152028 | 58 | 19 | 3.0 | 8.0 | 0.00 | 0.12 | 0.12 | 54 | 1010.8 |
| 20260507151545 | 58 | 53 | 2.0 | 8.0 | 0.00 | 0.12 | 0.12 | 55 | 1010.9 |
| 20260507151029 | 58 | 306 | 2.0 | 9.0 | 0.00 | 0.12 | 0.12 | 53 | 1010.9 |
| 20260507150528 | 58 | 34 | 3.0 | 9.0 | 0.00 | 0.12 | 0.12 | 52 | 1011.0 |
| 20260507150045 | 58 | 267 | 3.0 | 8.0 | 0.00 | 0.12 | 0.12 | 52 | 1010.9 |
| 20260507145529 | 58 | 327 | 2.0 | 9.0 | 0.00 | 0.12 | 0.12 | 53 | 1010.9 |
| 20260507145026 | 58 | 326 | 2.0 | 9.0 | 0.00 | 0.12 | 0.12 | 51 | 1010.8 |
| 20260507144555 | 58 | 65 | 2.0 | 7.0 | 0.00 | 0.12 | 0.12 | 51 | 1011.0 |
| 20260507144031 | 58 | 39 | 3.0 | 9.0 | 0.00 | 0.12 | 0.12 | 53 | 1011.0 |
| 20260507143528 | 57 | 101 | 3.0 | 9.0 | 0.00 | 0.12 | 0.12 | 57 | 1011.1 |
| 20260507143046 | 56 | 321 | 2.0 | 9.0 | 0.00 | 0.12 | 0.12 | 58 | 1011.1 |
| 20260507142528 | 56 | 262 | 3.0 | 11.0 | 0.00 | 0.12 | 0.12 | 58 | 1011.1 |
| 20260507142024 | 56 | 21 | 3.0 | 11.0 | 0.00 | 0.12 | 0.12 | 62 | 1011.1 |
| 20260507141542 | 56 | 318 | 4.0 | 10.0 | 0.00 | 0.12 | 0.12 | 59 | 1011.2 |
| 20260507141028 | 56 | 319 | 1.0 | 9.0 | 0.00 | 0.12 | 0.12 | 61 | 1011.1 |
| 20260507140528 | 55 | 19 | 2.0 | 9.0 | 0.00 | 0.12 | 0.12 | 65 | 1011.2 |
| 20260507140042 | 55 | 331 | 2.0 | 5.0 | 0.00 | 0.12 | 0.12 | 66 | 1011.3 |
| 20260507135528 | 54 | 336 | 2.0 | 9.0 | 0.00 | 0.12 | 0.12 | 65 | 1011.3 |
| 20260507135028 | 54 | 5 | 2.0 | 9.0 | 0.00 | 0.12 | 0.12 | 67 | 1011.4 |
| 20260507134549 | 54 | 47 | 4.0 | 9.0 | 0.00 | 0.12 | 0.12 | 66 | 1011.2 |
| 20260507134029 | 54 | 318 | 1.0 | 7.0 | 0.00 | 0.12 | 0.12 | 69 | 1011.4 |
| 20260507133525 | 54 | 34 | 2.0 | 7.0 | 0.00 | 0.12 | 0.12 | 69 | 1011.5 |
| 20260507133048 | 54 | 53 | 1.0 | 10.0 | 0.00 | 0.12 | 0.12 | 73 | 1011.3 |
| 20260507132527 | 54 | 348 | 4.0 | 10.0 | 0.00 | 0.12 | 0.12 | 73 | 1011.2 |
| 20260507132027 | 54 | 24 | 2.0 | 8.0 | 0.00 | 0.12 | 0.12 | 73 | 1011.1 |
| 20260507131545 | 53 | 331 | 2.0 | 8.0 | 0.00 | 0.12 | 0.12 | 74 | 1011.2 |
| 20260507131027 | 53 | 317 | 2.0 | 10.0 | 0.00 | 0.12 | 0.12 | 74 | 1011.3 |
| 20260507130529 | 53 | 311 | 3.0 | 10.0 | 0.00 | 0.12 | 0.12 | 75 | 1011.3 |
| 20260507130043 | 53 | 333 | 2.0 | 8.0 | 0.00 | 0.12 | 0.12 | 76 | 1011.4 |
| 20260507125528 | 53 | 329 | 3.0 | 5.0 | 0.00 | 0.12 | 0.12 | 79 | 1011.4 |
| 20260507125031 | 53 | 336 | 1.0 | 6.0 | 0.00 | 0.12 | 0.12 | 82 | 1011.4 |
| 20260507124537 | 53 | 9 | 1.0 | 6.0 | 0.00 | 0.12 | 0.12 | 83 | 1011.4 |
| 20260507124028 | 53 | 323 | 1.0 | 4.0 | 0.00 | 0.12 | 0.12 | 84 | 1011.3 |
| 20260507123528 | 52 | 15 | 1.0 | 4.0 | 0.00 | 0.12 | 0.12 | 84 | 1011.2 |
| 20260507123044 | 52 | 340 | 0.0 | 2.0 | 0.00 | 0.12 | 0.12 | 84 | 1011.3 |
| 20260507122529 | 52 | 0 | 0.0 | 1.0 | 0.00 | 0.12 | 0.12 | 85 | 1011.2 |
| 20260507122031 | 52 | 0 | 0.0 | 1.0 | 0.00 | 0.12 | 0.12 | 85 | 1011.1 |
| 20260507121545 | 52 | 272 | 0.0 | 1.0 | 0.00 | 0.12 | 0.12 | 84 | 1011.2 |
| 20260507121025 | 52 | 336 | 0.0 | 3.0 | 0.00 | 0.12 | 0.12 | 85 | 1011.1 |
| 20260507120527 | 52 | 336 | 0.0 | 3.0 | 0.00 | 0.12 | 0.12 | 84 | 1011.1 |
| 20260507120047 | 52 | 333 | 0.0 | 2.0 | 0.00 | 0.12 | 0.12 | 84 | 1011.0 |
| 20260507115527 | 52 | 324 | 0.0 | 2.0 | 0.00 | 0.12 | 0.12 | 85 | 1011.1 |
| 20260507115028 | 51 | 340 | 0.0 | 2.0 | 0.00 | 0.12 | 0.12 | 85 | 1011.1 |
| 20260507114548 | 51 | 350 | 1.0 | 2.0 | 0.00 | 0.12 | 0.12 | 85 | 1011.0 |
| 20260507114031 | 51 | 0 | 0.0 | 1.0 | 0.00 | 0.12 | 0.12 | 86 | 1011.1 |
| 20260507113527 | 51 | 331 | 0.0 | 1.0 | 0.00 | 0.12 | 0.12 | 85 | 1010.8 |
| 20260507113039 | 51 | 311 | 0.0 | 1.0 | 0.00 | 0.12 | 0.12 | 85 | 1011.0 |
| 20260507112528 | 51 | 0 | 0.0 | 1.0 | 0.00 | 0.12 | 0.12 | 85 | 1011.2 |
| 20260507112028 | 51 | 272 | 0.0 | 1.0 | 0.00 | 0.12 | 0.12 | 85 | 1011.0 |
| 20260507111557 | 51 | 0 | 0.0 | 1.0 | 0.00 | 0.12 | 0.12 | 85 | 1010.8 |
| 20260507111025 | 51 | 22 | 0.0 | 1.0 | 0.00 | 0.12 | 0.12 | 85 | 1010.9 |
| 20260507110527 | 51 | 0 | 0.0 | 1.0 | 0.00 | 0.12 | 0.12 | 85 | 1010.7 |
| 20260507110044 | 51 | 331 | 0.0 | 1.0 | 0.00 | 0.12 | 0.12 | 85 | 1010.5 |
| 20260507105530 | 51 | 301 | 0.0 | 1.0 | 0.00 | 0.12 | 0.12 | 86 | 1010.4 |
| 20260507105026 | 51 | 314 | 0.0 | 1.0 | 0.00 | 0.12 | 0.12 | 87 | 1010.3 |
| 20260507104544 | 51 | 288 | 0.0 | 1.0 | 0.00 | 0.12 | 0.12 | 85 | 1010.1 |
| 20260507104026 | 51 | 287 | 0.0 | 1.0 | 0.00 | 0.12 | 0.12 | 85 | 1010.3 |
| 20260507103526 | 51 | 0 | 0.0 | 1.0 | 0.00 | 0.12 | 0.12 | 84 | 1010.2 |
| 20260507103041 | 51 | 0 | 0.0 | 1.0 | 0.00 | 0.12 | 0.12 | 85 | 1010.0 |
| 20260507102526 | 51 | 0 | 0.0 | 1.0 | 0.00 | 0.12 | 0.12 | 85 | 1010.1 |
| 20260507102026 | 51 | 0 | 0.0 | 3.0 | 0.00 | 0.12 | 0.12 | 83 | 1010.1 |
| 20260507101538 | 51 | 314 | 0.0 | 4.0 | 0.00 | 0.12 | 0.12 | 84 | 1010.0 |
| 20260507101027 | 51 | 330 | 1.0 | 4.0 | 0.00 | 0.12 | 0.12 | 83 | 1010.0 |
| 20260507100526 | 51 | 337 | 1.0 | 4.0 | 0.00 | 0.12 | 0.12 | 83 | 1010.0 |
| 20260507100041 | 51 | 15 | 1.0 | 4.0 | 0.00 | 0.12 | 0.12 | 83 | 1010.0 |
| 20260507095526 | 51 | 329 | 2.0 | 5.0 | 0.00 | 0.12 | 0.12 | 83 | 1009.9 |
| 20260507095029 | 51 | 0 | 1.0 | 5.0 | 0.00 | 0.12 | 0.12 | 83 | 1009.9 |
| 20260507094544 | 51 | 325 | 1.0 | 5.0 | 0.00 | 0.12 | 0.12 | 83 | 1010.2 |
| 20260507094029 | 51 | 0 | 2.0 | 5.0 | 0.00 | 0.12 | 0.12 | 83 | 1010.1 |
| 20260507093525 | 51 | 329 | 2.0 | 6.0 | 0.00 | 0.12 | 0.12 | 82 | 1010.0 |
| 20260507093046 | 51 | 317 | 2.0 | 6.0 | 0.00 | 0.12 | 0.12 | 83 | 1010.0 |
| 20260507092526 | 51 | 331 | 2.0 | 6.0 | 0.00 | 0.12 | 0.12 | 83 | 1009.8 |
| 20260507092025 | 51 | 331 | 1.0 | 9.0 | 0.00 | 0.12 | 0.12 | 83 | 1009.6 |
| 20260507091541 | 51 | 317 | 1.0 | 9.0 | 0.00 | 0.12 | 0.12 | 84 | 1009.7 |
| 20260507091025 | 51 | 317 | 2.0 | 9.0 | 0.00 | 0.12 | 0.12 | 84 | 1009.8 |
| 20260507090527 | 51 | 343 | 3.0 | 6.0 | 0.00 | 0.12 | 0.12 | 83 | 1009.7 |
| 20260507090042 | 51 | 321 | 2.0 | 5.0 | 0.00 | 0.12 | 0.12 | 84 | 1009.7 |
| 20260507085526 | 51 | 331 | 1.0 | 4.0 | 0.00 | 0.12 | 0.12 | 84 | 1009.6 |
| 20260507085026 | 51 | 319 | 2.0 | 4.0 | 0.00 | 0.12 | 0.12 | 84 | 1009.6 |
| 20260507084543 | 51 | 327 | 1.0 | 6.0 | 0.00 | 0.12 | 0.12 | 84 | 1009.6 |
| 20260507084030 | 51 | 0 | 2.0 | 6.0 | 0.00 | 0.12 | 0.12 | 84 | 1009.6 |
| 20260507083530 | 51 | 326 | 1.0 | 8.0 | 0.00 | 0.12 | 0.12 | 84 | 1009.7 |
| 20260507083047 | 51 | 329 | 3.0 | 9.0 | 0.00 | 0.12 | 0.12 | 84 | 1009.6 |
| 20260507082525 | 51 | 328 | 2.0 | 10.0 | 0.00 | 0.12 | 0.12 | 84 | 1009.6 |
| 20260507082025 | 51 | 335 | 3.0 | 10.0 | 0.00 | 0.12 | 0.12 | 84 | 1009.5 |
| 20260507081544 | 50 | 18 | 2.0 | 9.0 | 0.00 | 0.12 | 0.12 | 84 | 1009.5 |
| 20260507081026 | 50 | 339 | 2.0 | 9.0 | 0.00 | 0.12 | 0.12 | 85 | 1009.5 |
| 20260507080528 | 51 | 286 | 2.0 | 12.0 | 0.00 | 0.12 | 0.12 | 85 | 1009.5 |
| 20260507080044 | 51 | 340 | 3.0 | 12.0 | 0.00 | 0.12 | 0.12 | 85 | 1009.5 |
| 20260507075525 | 51 | 332 | 3.0 | 11.0 | 0.00 | 0.12 | 0.12 | 85 | 1009.5 |
| 20260507075030 | 51 | 327 | 3.0 | 11.0 | 0.00 | 0.12 | 0.12 | 85 | 1009.4 |
| 20260507074552 | 51 | 319 | 3.0 | 9.0 | 0.00 | 0.12 | 0.12 | 86 | 1009.6 |
| 20260507074027 | 51 | 337 | 3.0 | 11.0 | 0.00 | 0.12 | 0.12 | 87 | 1009.6 |
| 20260507073528 | 51 | 340 | 2.0 | 11.0 | 0.00 | 0.12 | 0.12 | 87 | 1009.7 |
| 20260507073045 | 51 | 318 | 2.0 | 12.0 | 0.01 | 0.12 | 0.12 | 87 | 1009.7 |
| 20260507072528 | 51 | 330 | 4.0 | 12.0 | 0.01 | 0.12 | 0.12 | 86 | 1009.7 |
| 20260507072027 | 51 | 13 | 3.0 | 11.0 | 0.03 | 0.12 | 0.12 | 87 | 1009.7 |
| 20260507071546 | 51 | 297 | 4.0 | 12.0 | 0.04 | 0.12 | 0.12 | 87 | 1009.6 |
| 20260507071028 | 52 | 313 | 5.0 | 12.0 | 0.06 | 0.12 | 0.12 | 88 | 1009.6 |
| 20260507070528 | 52 | 313 | 3.0 | 8.0 | 0.09 | 0.12 | 0.12 | 91 | 1010.0 |
| 20260507070049 | 52 | 284 | 1.0 | 4.0 | 0.09 | 0.12 | 0.12 | 92 | 1010.3 |
| 20260507065528 | 52 | 310 | 1.0 | 4.0 | 0.09 | 0.12 | 0.12 | 92 | 1009.8 |
| 20260507065027 | 52 | 324 | 1.0 | 3.0 | 0.10 | 0.12 | 0.12 | 91 | 1009.5 |
| 20260507064557 | 52 | 342 | 0.0 | 3.0 | 0.12 | 0.12 | 0.12 | 91 | 1009.6 |
| 20260507064024 | 52 | 320 | 1.0 | 7.0 | 0.12 | 0.12 | 0.12 | 90 | 1009.3 |
| 20260507063525 | 52 | 311 | 1.0 | 7.0 | 0.12 | 0.12 | 0.12 | 90 | 1009.7 |
| 20260507063047 | 52 | 333 | 2.0 | 14.0 | 0.11 | 0.11 | 0.11 | 89 | 1009.2 |
| 20260507062528 | 52 | 57 | 1.0 | 14.0 | 0.10 | 0.10 | 0.10 | 89 | 1009.0 |
| 20260507062028 | 53 | 317 | 4.0 | 14.0 | 0.09 | 0.09 | 0.09 | 88 | 1009.6 |
| 20260507061541 | 53 | 329 | 3.0 | 10.0 | 0.07 | 0.07 | 0.07 | 88 | 1009.8 |
| 20260507061027 | 53 | 275 | 1.0 | 17.0 | 0.06 | 0.06 | 0.06 | 86 | 1009.6 |
| 20260507060528 | 54 | 30 | 4.0 | 17.0 | 0.03 | 0.03 | 0.03 | 84 | 1009.3 |
| 20260507060045 | 55 | 340 | 4.0 | 11.0 | 0.03 | 0.03 | 0.03 | 82 | 1009.6 |
| 20260507055528 | 56 | 343 | 4.0 | 15.0 | 0.03 | 0.03 | 0.03 | 81 | 1009.4 |
| 20260507055027 | 57 | 315 | 5.0 | 15.0 | 0.02 | 0.02 | 0.02 | 77 | 1009.0 |
| 20260507054544 | 57 | 313 | 2.0 | 8.0 | 0.00 | 0.00 | 0.00 | 80 | 1010.2 |
| 20260507054031 | 57 | 10 | 3.0 | 9.0 | 0.00 | 0.00 | 0.00 | 79 | 1009.3 |
| 20260507053529 | 57 | 333 | 3.0 | 9.0 | 0.00 | 0.00 | 0.00 | 78 | 1008.7 |
| 20260507053045 | 58 | 328 | 2.0 | 11.0 | 0.00 | 0.00 | 0.00 | 79 | 1008.8 |
| 20260507052527 | 58 | 309 | 4.0 | 11.0 | 0.00 | 0.00 | 0.00 | 79 | 1009.1 |
| 20260507052028 | 58 | 349 | 3.0 | 10.0 | 0.00 | 0.00 | 0.00 | 80 | 1009.0 |
| 20260507051544 | 59 | 329 | 4.0 | 13.0 | 0.00 | 0.00 | 0.00 | 79 | 1008.9 |
| 20260507051030 | 59 | 295 | 3.0 | 13.0 | 0.00 | 0.00 | 0.00 | 79 | 1009.1 |
| 20260507050528 | 60 | 338 | 4.0 | 13.0 | 0.00 | 0.00 | 0.00 | 79 | 1008.9 |
| 20260507050043 | 60 | 349 | 3.0 | 9.0 | 0.00 | 0.00 | 0.00 | 80 | 1008.7 |
| 20260507045528 | 60 | 40 | 3.0 | 11.0 | 0.00 | 0.00 | 0.00 | 80 | 1008.2 |
| 20260507045028 | 61 | 345 | 2.0 | 11.0 | 0.00 | 0.00 | 0.00 | 79 | 1007.9 |
| 20260507044540 | 62 | 49 | 4.0 | 11.0 | 0.00 | 0.00 | 0.00 | 79 | 1008.1 |
| 20260507044028 | 63 | 334 | 2.0 | 7.0 | 0.00 | 0.00 | 0.00 | 81 | 1008.1 |
| 20260507043526 | 63 | 10 | 2.0 | 9.0 | 0.00 | 0.00 | 0.00 | 81 | 1008.3 |
| 20260507043045 | 64 | 336 | 3.0 | 9.0 | 0.00 | 0.00 | 0.00 | 81 | 1008.1 |
| 20260507042528 | 64 | 327 | 2.0 | 6.0 | 0.00 | 0.00 | 0.00 | 80 | 1008.1 |
| 20260507042025 | 64 | 343 | 2.0 | 5.0 | 0.00 | 0.00 | 0.00 | 81 | 1007.9 |
| 20260507041553 | 64 | 316 | 1.0 | 6.0 | 0.00 | 0.00 | 0.00 | 81 | 1008.1 |
| 20260507041026 | 64 | 352 | 2.0 | 6.0 | 0.00 | 0.00 | 0.00 | 82 | 1008.3 |
| 20260507040529 | 64 | 337 | 2.0 | 4.0 | 0.00 | 0.00 | 0.00 | 82 | 1008.0 |
| 20260507040044 | 64 | 299 | 1.0 | 3.0 | 0.00 | 0.00 | 0.00 | 82 | 1008.0 |
| 20260507035527 | 65 | 0 | 1.0 | 5.0 | 0.00 | 0.00 | 0.00 | 83 | 1007.9 |
| 20260507035025 | 65 | 324 | 1.0 | 7.0 | 0.00 | 0.00 | 0.00 | 83 | 1007.9 |
| 20260507034544 | 65 | 293 | 1.0 | 7.0 | 0.00 | 0.00 | 0.00 | 82 | 1008.2 |
| 20260507034028 | 65 | 298 | 1.0 | 3.0 | 0.00 | 0.00 | 0.00 | 82 | 1008.2 |
| 20260507033528 | 65 | 284 | 1.0 | 2.0 | 0.00 | 0.00 | 0.00 | 81 | 1008.1 |
| 20260507033047 | 65 | 288 | 0.0 | 2.0 | 0.00 | 0.00 | 0.00 | 81 | 1008.1 |
| 20260507032526 | 65 | 304 | 1.0 | 2.0 | 0.00 | 0.00 | 0.00 | 81 | 1008.0 |
| 20260507032025 | 65 | 267 | 0.0 | 1.0 | 0.00 | 0.00 | 0.00 | 81 | 1007.7 |
| 20260507031544 | 65 | 240 | 0.0 | 2.0 | 0.00 | 0.00 | 0.00 | 81 | 1007.5 |
| 20260507031028 | 65 | 245 | 0.0 | 3.0 | 0.00 | 0.00 | 0.00 | 81 | 1007.5 |
| 20260507030528 | 65 | 163 | 1.0 | 3.0 | 0.00 | 0.00 | 0.00 | 81 | 1007.7 |
| 20260507030045 | 66 | 221 | 1.0 | 3.0 | 0.00 | 0.00 | 0.00 | 80 | 1007.7 |
| 20260507025525 | 66 | 276 | 1.0 | 3.0 | 0.00 | 0.00 | 0.00 | 80 | 1007.9 |
| 20260507025025 | 66 | 0 | 1.0 | 3.0 | 0.00 | 0.00 | 0.00 | 80 | 1008.1 |
| 20260507024541 | 66 | 217 | 1.0 | 5.0 | 0.00 | 0.00 | 0.00 | 80 | 1008.1 |
| 20260507024027 | 66 | 278 | 1.0 | 5.0 | 0.00 | 0.00 | 0.00 | 80 | 1008.0 |
| 20260507023528 | 66 | 265 | 1.0 | 5.0 | 0.00 | 0.00 | 0.00 | 80 | 1007.7 |
| 20260507023037 | 66 | 247 | 2.0 | 5.0 | 0.00 | 0.00 | 0.00 | 80 | 1007.8 |
| 20260507022527 | 66 | 248 | 1.0 | 8.0 | 0.00 | 0.00 | 0.00 | 80 | 1007.9 |
| 20260507022026 | 66 | 277 | 2.0 | 8.0 | 0.00 | 0.00 | 0.00 | 80 | 1008.1 |
| 20260507021550 | 66 | 255 | 1.0 | 6.0 | 0.00 | 0.00 | 0.00 | 80 | 1008.2 |
| 20260507021027 | 66 | 267 | 1.0 | 5.0 | 0.00 | 0.00 | 0.00 | 80 | 1008.3 |
| 20260507020526 | 66 | 269 | 1.0 | 4.0 | 0.00 | 0.00 | 0.00 | 80 | 1008.3 |
| 20260507020045 | 66 | 261 | 1.0 | 3.0 | 0.00 | 0.00 | 0.00 | 80 | 1008.2 |
| 20260507015525 | 66 | 254 | 1.0 | 3.0 | 0.00 | 0.00 | 0.00 | 80 | 1008.2 |
| 20260507015029 | 66 | 253 | 0.0 | 6.0 | 0.00 | 0.00 | 0.00 | 80 | 1008.2 |
| 20260507014555 | 66 | 247 | 1.0 | 6.0 | 0.00 | 0.00 | 0.00 | 80 | 1008.1 |
| 20260507014027 | 66 | 0 | 2.0 | 6.0 | 0.00 | 0.00 | 0.00 | 79 | 1007.9 |
| 20260507013525 | 66 | 246 | 1.0 | 7.0 | 0.00 | 0.00 | 0.00 | 79 | 1007.8 |
| 20260507013055 | 66 | 252 | 2.0 | 8.0 | 0.00 | 0.00 | 0.00 | 79 | 1008.1 |
| 20260507012525 | 66 | 214 | 2.0 | 8.0 | 0.00 | 0.00 | 0.00 | 79 | 1008.2 |
| 20260507012030 | 66 | 171 | 0.0 | 5.0 | 0.00 | 0.00 | 0.00 | 79 | 1008.1 |
| 20260507011540 | 66 | 240 | 1.0 | 6.0 | 0.00 | 0.00 | 0.00 | 79 | 1008.1 |
| 20260507011026 | 66 | 237 | 2.0 | 6.0 | 0.00 | 0.00 | 0.00 | 79 | 1008.1 |
| 20260507010526 | 66 | 244 | 2.0 | 4.0 | 0.00 | 0.00 | 0.00 | 79 | 1008.1 |
| 20260507010046 | 66 | 243 | 1.0 | 5.0 | 0.00 | 0.00 | 0.00 | 78 | 1008.2 |
| 20260507005525 | 66 | 249 | 2.0 | 5.0 | 0.00 | 0.00 | 0.00 | 78 | 1008.3 |
| 20260507005025 | 66 | 252 | 1.0 | 3.0 | 0.00 | 0.00 | 0.00 | 78 | 1008.4 |
| 20260507004544 | 66 | 269 | 1.0 | 4.0 | 0.00 | 0.00 | 0.00 | 78 | 1008.3 |
| 20260507004029 | 66 | 283 | 1.0 | 5.0 | 0.00 | 0.00 | 0.00 | 78 | 1008.3 |
| 20260507003527 | 66 | 260 | 1.0 | 5.0 | 0.00 | 0.00 | 0.00 | 77 | 1007.8 |
| 20260507003044 | 67 | 248 | 1.0 | 5.0 | 0.00 | 0.00 | 0.00 | 77 | 1007.6 |
| 20260507002525 | 67 | 248 | 1.0 | 5.0 | 0.00 | 0.00 | 0.00 | 77 | 1007.5 |
| 20260507002026 | 67 | 249 | 1.0 | 4.0 | 0.00 | 0.00 | 0.00 | 76 | 1007.4 |
| 20260507001555 | 67 | 198 | 1.0 | 5.0 | 0.00 | 0.00 | 0.00 | 76 | 1007.6 |
| 20260507001026 | 67 | 252 | 1.0 | 7.0 | 0.00 | 0.00 | 0.00 | 75 | 1007.6 |
| 20260507000530 | 67 | 221 | 1.0 | 7.0 | 0.00 | 0.00 | 0.00 | 75 | 1007.4 |
| 20260507000048 | 67 | 227 | 1.0 | 9.0 | 0.00 | 0.00 | 0.00 | 75 | 1007.3 |
| 20260506235526 | 68 | 191 | 1.0 | 9.0 | 0.00 | 0.00 | 0.00 | 75 | 1007.4 |
| 20260506235026 | 68 | 273 | 2.0 | 9.0 | 0.00 | 0.00 | 0.00 | 75 | 1007.5 |
| 20260506234546 | 68 | 284 | 2.0 | 10.0 | 0.00 | 0.00 | 0.00 | 74 | 1007.4 |
| 20260506234026 | 68 | 277 | 2.0 | 10.0 | 0.00 | 0.00 | 0.00 | 74 | 1007.4 |
| 20260506233526 | 68 | 217 | 3.0 | 10.0 | 0.00 | 0.00 | 0.00 | 74 | 1007.3 |
| 20260506233047 | 68 | 262 | 2.0 | 8.0 | 0.00 | 0.00 | 0.00 | 73 | 1007.4 |
| 20260506232526 | 68 | 276 | 2.0 | 8.0 | 0.00 | 0.00 | 0.00 | 73 | 1007.4 |
| 20260506232028 | 69 | 252 | 3.0 | 8.0 | 0.00 | 0.00 | 0.00 | 73 | 1007.4 |
| 20260506231547 | 69 | 0 | 1.0 | 11.0 | 0.00 | 0.00 | 0.00 | 72 | 1007.3 |
| 20260506231025 | 69 | 229 | 2.0 | 11.0 | 0.00 | 0.00 | 0.00 | 72 | 1007.3 |
| 20260506230526 | 69 | 165 | 2.0 | 12.0 | 0.00 | 0.00 | 0.00 | 72 | 1007.4 |
| 20260506230043 | 69 | 263 | 3.0 | 12.0 | 0.00 | 0.00 | 0.00 | 72 | 1007.4 |
| 20260506225525 | 69 | 252 | 5.0 | 12.0 | 0.00 | 0.00 | 0.00 | 72 | 1007.4 |
| 20260506225031 | 69 | 298 | 4.0 | 12.0 | 0.00 | 0.00 | 0.00 | 72 | 1007.4 |
| 20260506224544 | 69 | 280 | 2.0 | 9.0 | 0.00 | 0.00 | 0.00 | 72 | 1007.4 |
| 20260506224028 | 69 | 282 | 4.0 | 12.0 | 0.00 | 0.00 | 0.00 | 71 | 1007.3 |
| 20260506223524 | 69 | 303 | 4.0 | 12.0 | 0.00 | 0.00 | 0.00 | 71 | 1007.1 |
| 20260506223102 | 69 | 240 | 3.0 | 14.0 | 0.00 | 0.00 | 0.00 | 71 | 1007.2 |
| 20260506222526 | 70 | 252 | 5.0 | 14.0 | 0.00 | 0.00 | 0.00 | 71 | 1007.1 |
| 20260506222031 | 70 | 265 | 3.0 | 12.0 | 0.00 | 0.00 | 0.00 | 70 | 1007.3 |
| 20260506221543 | 70 | 235 | 2.0 | 8.0 | 0.00 | 0.00 | 0.00 | 70 | 1007.3 |
| 20260506221025 | 70 | 308 | 2.0 | 8.0 | 0.00 | 0.00 | 0.00 | 70 | 1007.2 |
| 20260506220525 | 70 | 242 | 1.0 | 8.0 | 0.00 | 0.00 | 0.00 | 71 | 1007.1 |
| 20260506220043 | 70 | 298 | 2.0 | 8.0 | 0.00 | 0.00 | 0.00 | 71 | 1007.1 |
| 20260506215525 | 70 | 277 | 2.0 | 8.0 | 0.00 | 0.00 | 0.00 | 72 | 1007.1 |
| 20260506215025 | 69 | 291 | 3.0 | 7.0 | 0.00 | 0.00 | 0.00 | 71 | 1007.1 |
| 20260506214541 | 69 | 271 | 3.0 | 14.0 | 0.00 | 0.00 | 0.00 | 72 | 1007.2 |
| 20260506214028 | 69 | 230 | 3.0 | 14.0 | 0.00 | 0.00 | 0.00 | 72 | 1007.2 |
| 20260506213527 | 69 | 277 | 4.0 | 14.0 | 0.00 | 0.00 | 0.00 | 71 | 1007.1 |
| 20260506213037 | 69 | 247 | 4.0 | 11.0 | 0.00 | 0.00 | 0.00 | 72 | 1007.1 |
| 20260506212528 | 69 | 256 | 3.0 | 9.0 | 0.00 | 0.00 | 0.00 | 71 | 1006.9 |
| 20260506212028 | 69 | 259 | 3.0 | 9.0 | 0.00 | 0.00 | 0.00 | 72 | 1006.9 |
| 20260506211546 | 69 | 271 | 2.0 | 9.0 | 0.00 | 0.00 | 0.00 | 72 | 1007.0 |
| 20260506211028 | 68 | 267 | 2.0 | 9.0 | 0.00 | 0.00 | 0.00 | 72 | 1007.0 |